Tracking 23726 objects as of 24-Sep-2021
HD Live streaming from Space Station
objects crossing your sky now

ONEWEB-0319

Track ONEWEB-0319 now!
10-day predictions
ONEWEB-0319 is classified as:


NORAD ID: 49105
Int'l Code: 2021-075AG
Perigee: 540.4 km
Apogee: 570.6 km
Inclination: 87.4 °
Period: 95.6 minutes
Semi major axis: 6926 km
RCS: Unknown
Launch date: August 21, 2021
Source: United Kingdom (UK)
Launch site: TYURATAM MISSILE AND SPACE COMPLEX (TTMTR)
aabbcc
Your satellite tracking list
Your tracking list is empty




NASA's NSSDC Master Catalog

Two Line Element Set (TLE):
1 49105U 21075AG  21266.91668981 -.00981972  00000-0 -72796-1 0  9999
2 49105  87.4313 354.8329 0021834 171.1885 296.3494 15.06019030  3623
Source of the keplerian elements: AFSPC